Hourly Weather Bolshoe Korovino

Today, 1 August, Sunday

Time Temperature Precipitation Wind Pressure Humidity
00:00 +18°C° 0 mm 3 mps 742 mmHg 62%
01:00 +18°C° 0 mm 3 mps 742 mmHg 64%
02:00 +17°C° 0 mm 2 mps 742 mmHg 65%
03:00 +17°C° 0 mm 2 mps 742 mmHg 67%
04:00 +17°C° 0 mm 2 mps 742 mmHg 68%
05:00 +17°C° 0 mm 2 mps 743 mmHg 69%
06:00 +18°C° 0 mm 2 mps 743 mmHg 69%
07:00 +20°C° 0 mm 2 mps 743 mmHg 64%
08:00 +23°C° 0 mm 2 mps 743 mmHg 58%
09:00 +24°C° 0 mm 2 mps 743 mmHg 53%
10:00 +26°C° 0 mm 2 mps 743 mmHg 49%
11:00 +27°C° 0 mm 3 mps 743 mmHg 44%
12:00 +29°C° 0 mm 3 mps 743 mmHg 40%
13:00 +30°C° 0 mm 3 mps 743 mmHg 40%
14:00 +30°C° 0 mm 4 mps 743 mmHg 40%
15:00 +32°C° 0 mm 4 mps 743 mmHg 41%
16:00 +30°C° 0.3 mm 3 mps 742 mmHg 49%
17:00 +28°C° 0.3 mm 2 mps 742 mmHg 57%
18:00 +27°C° 0.3 mm 2 mps 742 mmHg 64%
19:00 +26°C° 0 mm 2 mps 742 mmHg 68%
20:00 +24°C° 0 mm 2 mps 742 mmHg 71%
21:00 +23°C° 0 mm 2 mps 742 mmHg 74%
22:00 +23°C° 0 mm 2 mps 742 mmHg 75%
23:00 +21°C° 0 mm 2 mps 742 mmHg 76%

Tomorrow, 2 August, Monday

Time Temperature Precipitation Wind Pressure Humidity
00:00 +21°C° 0 mm 2 mps 742 mmHg 76%
01:00 +20°C° 0 mm 2 mps 742 mmHg 76%
02:00 +20°C° 0 mm 2 mps 742 mmHg 76%
03:00 +20°C° 0 mm 2 mps 742 mmHg 76%
04:00 +20°C° 0 mm 2 mps 742 mmHg 75%
05:00 +20°C° 0 mm 2 mps 742 mmHg 74%
06:00 +21°C° 0 mm 2 mps 742 mmHg 73%
07:00 +23°C° 0 mm 2 mps 742 mmHg 67%
08:00 +25°C° 0 mm 3 mps 742 mmHg 61%
09:00 +27°C° 0 mm 3 mps 742 mmHg 55%
10:00 +29°C° 0 mm 3 mps 742 mmHg 49%
11:00 +30°C° 0 mm 4 mps 742 mmHg 44%
12:00 +33°C° 0 mm 4 mps 741 mmHg 39%
13:00 +34°C° 0 mm 5 mps 741 mmHg 36%
14:00 +35°C° 0 mm 5 mps 740 mmHg 33%
15:00 +35°C° 0 mm 5 mps 740 mmHg 30%
16:00 +35°C° 0 mm 4 mps 739 mmHg 33%
17:00 +34°C° 0 mm 4 mps 739 mmHg 37%
18:00 +33°C° 0 mm 3 mps 738 mmHg 41%
19:00 +31°C° 0 mm 3 mps 738 mmHg 43%
20:00 +29°C° 0 mm 3 mps 738 mmHg 46%
21:00 +27°C° 0 mm 3 mps 738 mmHg 48%
22:00 +26°C° 0 mm 3 mps 738 mmHg 55%
23:00 +24°C° 0 mm 3 mps 738 mmHg 62%

Day after tomorrow, 3 August, Tuesday

Time Temperature Precipitation Wind Pressure Humidity
00:00 +22°C° 0 mm 3 mps 738 mmHg 68%
01:00 +21°C° 0 mm 4 mps 738 mmHg 69%
02:00 +21°C° 0 mm 4 mps 739 mmHg 70%
03:00 +21°C° 0 mm 4 mps 739 mmHg 71%
04:00 +20°C° 0 mm 3 mps 739 mmHg 74%
05:00 +20°C° 0 mm 3 mps 739 mmHg 77%
06:00 +20°C° 0 mm 2 mps 739 mmHg 79%
07:00 +20°C° 0.2 mm 2 mps 740 mmHg 80%
08:00 +20°C° 0.2 mm 3 mps 740 mmHg 81%
09:00 +21°C° 0.2 mm 3 mps 740 mmHg 82%
10:00 +22°C° 0.2 mm 4 mps 740 mmHg 77%
11:00 +23°C° 0.2 mm 4 mps 740 mmHg 73%
12:00 +23°C° 0.2 mm 5 mps 741 mmHg 68%
13:00 +23°C° 0.2 mm 5 mps 741 mmHg 65%
14:00 +23°C° 0.2 mm 5 mps 741 mmHg 62%
15:00 +23°C° 0.2 mm 5 mps 741 mmHg 59%
16:00 +23°C° 0 mm 4 mps 741 mmHg 57%
17:00 +25°C° 0 mm 4 mps 741 mmHg 55%
18:00 +25°C° 0 mm 4 mps 741 mmHg 53%
19:00 +22°C° 0 mm 4 mps 742 mmHg 60%
20:00 +20°C° 0 mm 4 mps 742 mmHg 68%
21:00 +18°C° 0 mm 3 mps 742 mmHg 75%
22:00 +18°C° 0 mm 3 mps 742 mmHg 79%
23:00 +17°C° 0 mm 3 mps 743 mmHg 84%

4 August, Wednesday

Time Temperature Precipitation Wind Pressure Humidity
00:00 +16°C° 0 mm 3 mps 743 mmHg 88%
01:00 +14°C° 0 mm 3 mps 743 mmHg 86%
02:00 +14°C° 0 mm 3 mps 743 mmHg 85%
03:00 +13°C° 0 mm 3 mps 744 mmHg 84%
04:00 +13°C° 0 mm 3 mps 744 mmHg 82%
05:00 +13°C° 0 mm 3 mps 744 mmHg 80%
06:00 +14°C° 0 mm 3 mps 744 mmHg 78%
07:00 +17°C° 0 mm 3 mps 745 mmHg 71%
08:00 +19°C° 0 mm 3 mps 745 mmHg 63%
09:00 +21°C° 0 mm 3 mps 745 mmHg 55%
10:00 +22°C° 0 mm 4 mps 745 mmHg 53%
11:00 +22°C° 0 mm 4 mps 745 mmHg 51%
12:00 +23°C° 0 mm 4 mps 746 mmHg 48%
13:00 +23°C° 0 mm 4 mps 746 mmHg 47%
14:00 +23°C° 0 mm 4 mps 746 mmHg 46%
15:00 +25°C° 0 mm 3 mps 746 mmHg 44%
16:00 +24°C° 0 mm 3 mps 746 mmHg 46%
17:00 +24°C° 0 mm 3 mps 746 mmHg 47%
18:00 +24°C° 0 mm 3 mps 746 mmHg 49%
19:00 +21°C° 0 mm 2 mps 746 mmHg 52%
20:00 +20°C° 0 mm 2 mps 746 mmHg 55%
21:00 +20°C° 0 mm 1 mps 746 mmHg 59%
22:00 +19°C° 0 mm 1 mps 746 mmHg 60%
23:00 +18°C° 0 mm 2 mps 747 mmHg 61%

5 August, Thursday

Time Temperature Precipitation Wind Pressure Humidity
00:00 +17°C° 0 mm 2 mps 747 mmHg 62%
01:00 +16°C° 0 mm 2 mps 747 mmHg 65%
02:00 +16°C° 0 mm 1 mps 747 mmHg 67%
03:00 +15°C° 0 mm 1 mps 747 mmHg 70%
04:00 +15°C° 0 mm 1 mps 747 mmHg 71%
05:00 +15°C° 0 mm 1 mps 747 mmHg 73%
06:00 +15°C° 0 mm 1 mps 747 mmHg 74%
07:00 +18°C° 0 mm 1 mps 748 mmHg 69%
08:00 +20°C° 0 mm 1 mps 748 mmHg 64%
09:00 +22°C° 0 mm 1 mps 748 mmHg 59%
10:00 +23°C° 0 mm 1 mps 748 mmHg 54%
11:00 +24°C° 0 mm 1 mps 748 mmHg 50%
12:00 +26°C° 0 mm 1 mps 748 mmHg 46%
13:00 +26°C° 0 mm 1 mps 747 mmHg 44%
14:00 +26°C° 0 mm 1 mps 747 mmHg 42%
15:00 +26°C° 0 mm 1 mps 747 mmHg 41%
16:00 +26°C° 0 mm 2 mps 747 mmHg 43%
17:00 +25°C° 0 mm 2 mps 747 mmHg 46%
18:00 +25°C° 0 mm 2 mps 747 mmHg 48%
19:00 +24°C° 0 mm 3 mps 747 mmHg 50%
20:00 +22°C° 0 mm 3 mps 747 mmHg 52%
21:00 +21°C° 0 mm 3 mps 747 mmHg 54%
22:00 +20°C° 0 mm 3 mps 747 mmHg 57%
23:00 +19°C° 0 mm 4 mps 747 mmHg 61%

6 August, Friday

Time Temperature Precipitation Wind Pressure Humidity
00:00 +19°C° 0 mm 4 mps 746 mmHg 64%
01:00 +18°C° 0.1 mm 4 mps 746 mmHg 69%
02:00 +18°C° 0.1 mm 4 mps 746 mmHg 74%
03:00 +16°C° 0.1 mm 5 mps 746 mmHg 80%
04:00 +17°C° 0 mm 4 mps 746 mmHg 80%
05:00 +17°C° 0 mm 4 mps 746 mmHg 81%
06:00 +17°C° 0 mm 4 mps 746 mmHg 82%
07:00 +17°C° 0.1 mm 4 mps 747 mmHg 82%
08:00 +16°C° 0.1 mm 5 mps 747 mmHg 83%
09:00 +16°C° 0.1 mm 5 mps 747 mmHg 84%
10:00 +17°C° 0.1 mm 5 mps 747 mmHg 80%
11:00 +17°C° 0.1 mm 5 mps 747 mmHg 76%
12:00 +17°C° 0.1 mm 5 mps 747 mmHg 72%
13:00 +19°C° 0.1 mm 5 mps 747 mmHg 71%
14:00 +19°C° 0.1 mm 5 mps 746 mmHg 70%
15:00 +19°C° 0.1 mm 5 mps 746 mmHg 69%
16:00 +19°C° 0 mm 5 mps 746 mmHg 68%
17:00 +19°C° 0 mm 6 mps 746 mmHg 67%
18:00 +19°C° 0 mm 6 mps 746 mmHg 67%
19:00 +19°C° 0 mm 6 mps 746 mmHg 68%
20:00 +19°C° 0 mm 6 mps 746 mmHg 68%
21:00 +19°C° 0 mm 6 mps 746 mmHg 69%
22:00 +19°C° 0 mm 5 mps 746 mmHg 69%
23:00 +19°C° 0 mm 5 mps 746 mmHg 68%
Show more

We Need Your Consent

Meteoprog and our Service Providers may store and access personal data such as cookies, device identifiers or other similar technologies on your device and process such data to personalise content and ads, as well as provide social media features and to analyse the traffic.

  • Store and/or access information on your device

    Cookies, device identifiers or other information can be stored or accessed on your device for the purposes indicated above.

  • Personalised ads and content, ad and content measurement, audience insights, and products development

    Ads and content can be personalised based on a profile. More data can be added to better personalise ads and content. Ad and content performance can be measured. Insights about the audience who saw the ads and content can be derived. Such data can be used to develop or improve user’s experience, systems and software.

By clicking ‘I Agree’ you will allow the use of indicated cookies, device identifiers, web beacons or other similar technologies. Your settings can be changed in the browser on your device.

For certain purposes, legitimate interests may be relied on, rather than consent. You can read more about this in our Privacy and Cookie Policy.